Regional Weather Roundup
Issued by NWS

Home | Current Version | Previous Version | Graphics & Text | Print | Product List | Glossary On
Versions: 1 2 3 4 5 6 7 8 9 10 11 12 13 14 15 16 17 18 19 20 21 22 23 24 25 26 27 28 29 30 31 32 33 34 35 36 37 38 39 40 41 42 43 44 45 46 47 48 49 50
000
ASUS43 KDTX 192010
RWRMI
MICHIGAN HOURLY REGIONAL WEATHER ROUNDUP
NATIONAL WEATHER SERVICE DETROIT/PONTIAC MI
400 PM EDT TUE SEP 19 2017

NOTE: "FAIR" INDICATES FEW OR NO CLOUDS BELOW 12,000 FEET WITH NO
SIGNIFICANT WEATHER AND/OR OBSTRUCTION TO VISIBILITY.

MIZ047>049-052>055-059>063-066>070-074>076-081>083-192100-
SOUTHEAST LOWER MICHIGAN

CITY           SKY/WX    TMP DP  RH WIND       PRES   REMARKS
ADRIAN         PTSUNNY   72  65  78 SE6       29.96S
ALMA           CLOUDY    71  59  65 NE7G16    29.98F
ANN ARBOR      CLOUDY    72  68  87 E9        29.96S
BAD AXE        CLOUDY    68  64  88 NE5       29.99F
CARO           CLOUDY    70  64  82 E3        29.97F
DETROIT CITY   CLOUDY    70  69  97 E6        29.97F
DETROIT        CLOUDY    71  69  93 E3        29.97F FOG
FLINT          CLOUDY    68  63  84 NE6       29.97F
GROSSE ILE     LGT RAIN  70  68  93 CALM      29.96S
HILLSDALE      CLOUDY    68  64  88 E6        29.96S
HOWELL         LGT RAIN  67  64  91 NE3       29.97F

CITY           SKY/WX    TMP DP  RH WIND       PRES   REMARKS
JACKSON        CLOUDY    70  65  84 E7        29.96F HAZE
LAMBERTVILLE   LGT RAIN  71  68  90 E5        29.95S
LANSING        CLOUDY    70  61  73 E6        29.97F
LAPEER         CLOUDY    70  64  82 E5        29.98F
MASON          CLOUDY    70  63  78 NE5       29.96F
MONROE         DRIZZLE   71  68  91 E6        29.95S
MT. CLEMENS    CLOUDY    69  69 100 E5        29.96S FOG
PONTIAC        LGT RAIN  71  68  90 E6        29.96F FOG
PORT HOPE        N/A     67  64  90 NE7       29.99F
PORT HURON     CLOUDY    72  68  88 CALM      29.98S
TRI CITIES     CLOUDY    69  65  86 NE15      29.98F
MIDLAND        CLOUDY    69  62  78 NE9       29.99F
TROY           LGT RAIN  70  68  93 E3        29.99F
SAGINAW HB     CLOUDY    70  63  78 NE9       29.97F
$$
MIZ043>046-050>051-056>058-064>065-071>073-077>080-192100-
SOUTHWEST LOWER MICHIGAN

CITY           SKY/WX    TMP DP  RH WIND       PRES   REMARKS
BATTLE CREEK   CLOUDY    69  64  84 NE10      29.96F
BENTON HARBOR  CLOUDY    73  63  70 VRB6      29.93F
BIG RAPIDS     MOSUNNY   73  56  55 SE7G16    29.98F
COLDWATER      HVY RAIN  67  67 100 E6        29.95S
FREMONT        PTSUNNY   74  59  61 E6        29.97F
HOLLAND        MOSUNNY   74  61  63 E8        29.95F
GRAND RAPIDS   CLOUDY    74  61  63 E9        29.96F
IONIA          CLOUDY    71  58  64 NE10      29.96F
KALAMAZOO      CLOUDY    71  62  73 E7        29.95F
LUDINGTON      SUNNY     75  57  52 CALM      29.96S
MARSHALL       CLOUDY    70  65  83 E5        29.95F
MOUNT PLEASANT CLOUDY    72  60  65 E8        29.98F
MUSKEGON       PTSUNNY   77  61  57 SE7       29.96S
SOUTH HAVEN    CLOUDY    74  65  73 E6        29.94S
$$
MIZ016>042-192100-
NORTHERN LOWER MICHIGAN

CITY           SKY/WX    TMP DP  RH WIND       PRES   REMARKS
ALPENA         MOSUNNY   68  59  73 SE8       30.04F
BEAVER ISLAND  SUNNY     70  57  62 E8        30.02F
BELLAIRE       SUNNY     76  50  40 SE5       29.99F
CADILLAC       SUNNY     76  43  31 SE9       29.99F
CHARLEVOIX     SUNNY     73  53  48 E7        30.03F
FRANKFORT      SUNNY     74  53  47 N10       29.98S
GAYLORD        SUNNY     72  53  51 VRB5      30.02F
GRAYLING       SUNNY     73  52  47 SE6       30.01F
HARBOR SPRINGS MOSUNNY   73  49  41 E6        30.00F
HOUGHTON LAKE  MOSUNNY   71  56  58 SE7       30.01F
MANISTEE       SUNNY     76  53  44 VRB5      29.97F
OSCODA         CLOUDY    68  58  71 NE6       30.01F
PELLSTON       MOSUNNY   73  53  49 NE9       30.02F
ROGERS CITY    CLOUDY    65  58  76 E10       30.05F
TRAVERSE CITY  PTSUNNY   75  52  44 N10       29.97F
$$
MIZ007>008-015-192100-
EASTERN UPPER MICHIGAN

CITY           SKY/WX    TMP DP  RH WIND       PRES   REMARKS
KINROSS        SUNNY     70  37  29 E17       30.05F
MACKINAC ISLAN SUNNY     66  54  65 E13       30.04F
NEWBERRY       SUNNY     71  37  28 SE13      30.03S
S. S. MARIE    SUNNY     72  45  37 SE10G17   30.04F
MUNISING         N/A     75  54  47 S8        29.99F
$$
MIZ004>006-011>014-085-192100-
CENTRAL UPPER MICHIGAN

CITY           SKY/WX    TMP DP  RH WIND       PRES   REMARKS
MANISTIQUE     SUNNY     68  57  67 E12       30.02F
ESCANABA       SUNNY     68  56  65 SE9       30.01S
MENOMINEE      SUNNY     71  57  61 E7        30.00S
SAWYER-GWINN   PTSUNNY   72  55  56 S12G17    30.01S
$$
MIZ001>003-009>011-084-192100-
WESTERN UPPER MICHIGAN

CITY           SKY/WX    TMP DP  RH WIND       PRES   REMARKS
IRON MOUNTAIN  PTSUNNY   72  56  57 SE7       29.98F
HOUGHTON       SUNNY     67  54  63 E10       29.98F
COPPER HARBOR    N/A     69  51  52 S7        29.98F
IRONWOOD         N/A     75  57  53 SE14      29.92F
$$

ABBREVIATIONS USED IN REMARKS
   TC - TEMPERATURE IN CELSIUS
  WCI - WIND CHILL INDEX
   HX - HEAT INDEX
  VSB - VISIBILITY





USA.gov is the U.S. government's official web portal to all federal, state and local government web resources and services.